EW7269 Weather Reports


time (UTC)temp
C
wind
direction
speed
KPH
gust
KPH
rain 1hr
cm
rain 24hr
cm
rain mn
cm
humidity
%
barometer
mb
20260507155103 12 184 0.0 1.6 0.00 0.58 0.58 73 1012.8
20260507154547 12 179 0.0 1.6 0.00 0.58 0.58 72 1012.8
20260507154043 12 0.0 0.0 0.00 0.58 0.58 73 1012.8
20260507153542 12 183 0.0 1.6 0.00 0.58 0.58 73 1012.7
20260507153044 12 0.0 0.0 0.00 0.58 0.58 72 1012.7
20260507152547 12 176 0.0 1.6 0.00 0.58 0.58 70 1012.9
20260507152043 12 75 0.0 1.6 0.00 0.58 0.58 70 1012.9
20260507151541 12 0.0 0.0 0.00 0.58 0.58 71 1012.9
20260507151043 11 53 0.0 1.6 0.00 0.58 0.58 69 1012.8
20260507150547 12 170 0.0 1.6 0.00 0.58 0.58 71 1012.8
20260507150043 11 38 0.0 1.6 0.00 0.58 0.58 70 1012.8
20260507145541 11 91 1.6 3.2 0.00 0.58 0.58 69 1012.8
20260507145043 12 125 0.0 1.6 0.00 0.58 0.58 71 1013.1
20260507144548 12 81 0.0 1.6 0.00 0.58 0.58 70 1013.0
20260507144043 12 137 0.0 1.6 0.00 0.58 0.58 70 1013.3
20260507143542 11 56 0.0 1.6 0.00 0.58 0.58 68 1013.5
20260507143043 12 60 0.0 1.6 0.00 0.61 0.58 69 1013.5
20260507142547 12 14 0.0 1.6 0.00 0.61 0.58 68 1013.4
20260507142043 11 294 1.6 1.6 0.00 0.66 0.58 69 1013.4
20260507141602 11 88 0.0 1.6 0.00 0.71 0.58 69 1013.4
20260507141043 11 52 1.6 3.2 0.00 0.79 0.58 69 1013.3
20260507140547 11 142 0.0 1.6 0.00 0.81 0.58 70 1013.5
20260507140043 11 0.0 0.0 0.00 0.81 0.58 70 1013.6
20260507135542 11 33 1.6 3.2 0.00 0.81 0.58 71 1013.5
20260507135043 11 162 0.0 1.6 0.00 0.81 0.58 71 1013.5
20260507134547 11 56 1.6 3.2 0.00 0.81 0.58 71 1013.6
20260507134043 11 99 1.6 3.2 0.00 0.81 0.58 72 1013.5
20260507133542 11 35 1.6 3.2 0.00 0.81 0.58 72 1013.4
20260507133043 11 24 1.6 4.8 0.00 0.84 0.58 73 1013.5
20260507132608 11 58 1.6 3.2 0.00 0.84 0.58 75 1013.6
20260507132043 11 148 1.6 3.2 0.00 0.86 0.58 76 1013.5
20260507131541 12 134 0.0 1.6 0.00 0.86 0.58 78 1013.5
20260507131103 11 313 1.6 3.2 0.00 0.86 0.58 81 1013.1
20260507130547 11 29 1.6 4.8 0.00 0.89 0.58 84 1013.1
20260507130103 11 20 1.6 3.2 0.00 0.89 0.58 86 1013.4
20260507125542 11 23 1.6 3.2 0.00 0.89 0.58 87 1013.5
20260507125043 12 15 1.6 4.8 0.00 0.89 0.58 89 1013.4
20260507124607 12 57 0.0 1.6 0.00 0.91 0.58 89 1013.6
20260507124043 12 49 0.0 3.2 0.00 0.91 0.58 90 1013.2
20260507123542 12 0.0 0.0 0.00 0.91 0.58 91 1013.2
20260507123043 12 116 1.6 1.6 0.00 0.91 0.58 91 1012.9
20260507122549 12 20 0.0 1.6 0.00 0.91 0.58 92 1013.0
20260507122043 12 21 1.6 4.8 0.00 0.91 0.58 92 1012.9
20260507121541 12 154 0.0 1.6 0.00 0.91 0.58 92 1012.8
20260507121043 12 112 0.0 1.6 0.00 0.91 0.58 92 1013.1
20260507120547 12 22 0.0 3.2 0.00 0.91 0.58 92 1012.8
20260507120043 12 156 0.0 1.6 0.00 0.91 0.58 92 1012.9
20260507115542 12 198 0.0 1.6 0.00 0.91 0.58 93 1012.7
20260507115124 11 158 0.0 1.6 0.00 0.91 0.58 93 1012.8
20260507114547 11 100 0.0 1.6 0.00 0.91 0.58 93 1012.9
20260507114043 12 81 0.0 1.6 0.00 0.91 0.58 93 1012.8
20260507113543 11 0.0 0.0 0.00 0.91 0.58 93 1012.9
20260507113043 11 0.0 0.0 0.00 0.91 0.58 93 1012.7
20260507112547 12 0.0 0.0 0.00 0.91 0.58 93 1012.4
20260507112044 11 0.0 0.0 0.00 0.91 0.58 93 1012.4
20260507111542 11 0.0 0.0 0.00 0.91 0.58 93 1012.7
20260507111044 11 0.0 0.0 0.00 0.91 0.58 93 1012.7
20260507110547 11 0.0 0.0 0.00 0.91 0.58 93 1012.7
20260507110044 11 0.0 0.0 0.00 0.91 0.58 93 1012.8
20260507105542 11 0.0 0.0 0.00 0.91 0.58 93 1012.6
20260507105043 11 0.0 0.0 0.00 0.91 0.58 93 1012.7
20260507104547 11 0.0 0.0 0.00 0.91 0.58 93 1012.6
20260507104044 11 0.0 0.0 0.00 0.91 0.58 93 1012.3
20260507103542 11 0.0 0.0 0.00 0.91 0.58 93 1012.5
20260507103104 11 0.0 0.0 0.00 0.91 0.58 92 1012.7
20260507102548 11 0.0 0.0 0.00 0.91 0.58 92 1012.5
20260507102044 11 0.0 0.0 0.00 0.91 0.58 92 1012.2
20260507101542 12 0.0 0.0 0.00 0.91 0.58 92 1012.2
20260507101044 12 0.0 0.0 0.00 0.91 0.58 92 1012.1
20260507100549 12 0.0 0.0 0.00 0.91 0.58 92 1012.2
20260507100043 12 0.0 0.0 0.00 0.91 0.58 92 1012.2
20260507095542 11 0.0 0.0 0.00 0.91 0.58 92 1012.3
20260507095044 11 0.0 0.0 0.00 0.91 0.58 92 1012.2
20260507094548 11 0.0 0.0 0.00 0.91 0.58 92 1012.3
20260507094044 11 0.0 0.0 0.00 0.91 0.58 92 1012.1
20260507093541 11 0.0 0.0 0.00 0.91 0.58 92 1012.1
20260507093044 12 0.0 0.0 0.00 0.91 0.58 92 1012.1
20260507092613 12 0.0 0.0 0.00 0.91 0.58 92 1012.1
20260507092044 12 0.0 0.0 0.00 0.91 0.58 92 1011.9
20260507091542 12 0.0 0.0 0.00 0.91 0.58 92 1011.8
20260507091104 11 0.0 0.0 0.00 0.91 0.58 92 1011.9
20260507090548 11 0.0 0.0 0.00 0.91 0.58 92 1011.9
20260507090044 11 0.0 0.0 0.00 0.91 0.58 92 1011.8
20260507085602 11 0.0 0.0 0.00 0.91 0.58 91 1011.8
20260507085044 11 0.0 0.0 0.00 0.91 0.58 91 1011.8
20260507084548 11 0.0 0.0 0.00 0.91 0.58 91 1011.7
20260507084044 11 0.0 0.0 0.00 0.91 0.58 91 1011.8
20260507083542 11 0.0 0.0 0.00 0.91 0.58 91 1012.0
20260507083124 11 0.0 0.0 0.00 0.91 0.58 91 1011.8
20260507082548 11 0.0 0.0 0.00 0.91 0.58 91 1011.9
20260507082044 11 0.0 0.0 0.00 0.91 0.58 91 1012.0
20260507081542 11 0.0 0.0 0.00 0.91 0.58 91 1011.8
20260507081044 11 317 0.0 1.6 0.00 0.91 0.58 91 1012.0
20260507080628 11 30 0.0 1.6 0.00 0.91 0.58 91 1012.0
20260507080043 11 0.0 0.0 0.00 0.91 0.58 91 1011.8
20260507075542 11 77 0.0 3.2 0.00 0.91 0.58 91 1011.5
20260507075044 11 36 0.0 1.6 0.00 0.91 0.58 91 1011.4
20260507074548 11 7 1.6 3.2 0.00 0.91 0.58 91 1011.4
20260507074044 11 59 0.0 1.6 0.00 0.91 0.58 91 1011.3
20260507073542 12 7 0.0 1.6 0.00 0.91 0.58 91 1011.2
20260507073043 12 0.0 0.0 0.00 0.91 0.58 91 1011.2
20260507072548 12 0.0 0.0 0.00 0.91 0.58 91 1011.1
20260507062548 12 90 1.6 3.2 0.10 0.91 0.58 91 1011.2
20260507062043 12 9 1.6 4.8 0.10 0.91 0.58 91 1011.4
20260507061542 13 333 1.6 4.8 0.13 0.91 0.58 91 1011.4
20260507061044 13 2 1.6 3.2 0.13 0.91 0.58 91 1011.3
20260507060547 13 333 1.6 4.8 0.15 0.91 0.58 90 1011.2
20260507060044 13 346 3.2 8.0 0.15 0.91 0.58 90 1011.0
20260507055542 13 11 1.6 4.8 0.15 0.89 0.56 90 1010.7
20260507055044 13 19 3.2 8.0 0.18 0.89 0.56 90 1010.5
20260507054548 13 24 3.2 4.8 0.20 0.89 0.56 90 1010.1
20260507054044 13 31 1.6 4.8 0.18 0.86 0.53 90 1010.1
20260507053541 13 132 1.6 4.8 0.20 0.86 0.53 90 1009.9
20260507053045 14 147 3.2 4.8 0.20 0.84 0.51 90 1010.0
20260507052608 14 148 1.6 3.2 0.20 0.81 0.48 89 1010.4
20260507052044 14 54 0.0 1.6 0.23 0.81 0.48 89 1011.0
20260507051542 14 156 1.6 3.2 0.25 0.79 0.46 89 1011.0
20260507051044 15 144 0.0 3.2 0.33 0.79 0.46 89 1011.2
20260507050608 15 19 1.6 3.2 0.43 0.76 0.43 89 1011.3
20260507050044 15 119 0.0 1.6 0.43 0.76 0.43 88 1011.4
20260507045542 15 177 0.0 1.6 0.41 0.74 0.41 88 1011.0
20260507045044 15 17 0.0 3.2 0.38 0.71 0.38 88 1011.0
20260507044548 15 48 0.0 3.2 0.36 0.69 0.36 88 1010.9
20260507044044 15 33 1.6 4.8 0.36 0.69 0.36 87 1010.9
20260507043542 15 25 1.6 1.6 0.33 0.66 0.33 87 1011.1
20260507043104 15 317 1.6 4.8 0.30 0.64 0.30 87 1011.1
20260507042548 15 2 3.2 4.8 0.28 0.61 0.28 86 1011.2
20260507042043 15 2 3.2 8.0 0.25 0.58 0.25 86 1011.4
20260507041542 16 324 3.2 8.0 0.20 0.53 0.20 85 1011.2
20260507041044 17 11 3.2 4.8 0.13 0.46 0.13 84 1011.3
20260507040608 16 265 1.6 3.2 0.00 0.33 0.00 83 1010.9
20260507040104 17 180 1.6 3.2 0.00 0.33 0.00 83 1010.1
20260507035542 17 0.0 0.0 0.00 0.33 0.33 82 1010.3
20260507035044 17 0.0 0.0 0.00 0.33 0.33 82 1010.4
20260507034540 17 337 1.6 4.8 0.00 0.33 0.33 82 1010.5
20260507034044 17 166 1.6 3.2 0.00 0.33 0.33 83 1010.3
20260507033542 17 21 3.2 8.0 0.00 0.33 0.33 84 1010.2
20260507033103 17 97 1.6 1.6 0.00 0.33 0.33 85 1010.1
20260507032620 18 149 1.6 1.6 0.00 0.33 0.33 86 1010.3
20260507032044 18 216 0.0 1.6 0.00 0.33 0.33 86 1010.3
20260507031541 18 0.0 0.0 0.00 0.33 0.33 86 1010.5
20260507031048 18 0.0 0.0 0.00 0.33 0.33 86 1010.4
20260507030540 18 0.0 0.0 0.00 0.33 0.33 86 1010.2
20260507030045 18 0.0 0.0 0.00 0.33 0.33 86 1010.1
20260507025541 18 0.0 0.0 0.00 0.33 0.33 86 1010.1
20260507025043 18 0.0 0.0 0.00 0.33 0.33 86 1010.1
20260507024540 18 0.0 0.0 0.00 0.33 0.33 86 1010.4
20260507024044 17 0.0 0.0 0.00 0.33 0.33 86 1010.5
20260507023542 17 0.0 0.0 0.00 0.33 0.33 86 1010.1
20260507023044 17 0.0 0.0 0.00 0.33 0.33 86 1010.1
20260507022601 17 0.0 0.0 0.00 0.33 0.33 86 1010.1
20260507022044 17 0.0 0.0 0.00 0.33 0.33 86 1009.7
20260507021541 17 0.0 0.0 0.00 0.33 0.33 86 1009.4
20260507021044 17 0.0 0.0 0.00 0.33 0.33 87 1009.4
20260507020540 17 0.0 0.0 0.00 0.33 0.33 87 1009.2
20260507020104 17 0.0 0.0 0.00 0.33 0.33 86 1009.4
20260507015541 17 0.0 0.0 0.00 0.33 0.33 85 1009.7
20260507015044 17 0.0 0.0 0.00 0.33 0.33 85 1009.8
20260507014540 17 0.0 0.0 0.00 0.33 0.33 85 1009.6
20260507014044 18 0.0 0.0 0.00 0.33 0.33 85 1009.9
20260507013541 18 0.0 0.0 0.00 0.33 0.33 85 1009.9
20260507013044 18 0.0 0.0 0.00 0.33 0.33 85 1009.7
20260507012540 18 0.0 0.0 0.00 0.33 0.33 84 1009.7
20260507012044 18 0.0 0.0 0.00 0.33 0.33 84 1010.1
20260507011541 18 0.0 0.0 0.00 0.33 0.33 84 1010.2
20260507011044 18 0.0 0.0 0.00 0.33 0.33 83 1010.1
20260507010540 18 0.0 0.0 0.00 0.33 0.33 82 1010.0
20260507010044 18 0.0 0.0 0.00 0.33 0.33 82 1009.9
20260507005541 18 0.0 0.0 0.00 0.33 0.33 82 1010.1
20260507005124 18 0.0 0.0 0.00 0.33 0.33 81 1009.9
20260507004540 18 0.0 0.0 0.00 0.33 0.33 81 1009.5
20260507004044 19 0.0 0.0 0.00 0.33 0.33 80 1009.6
20260507003541 19 221 1.6 3.2 0.00 0.33 0.33 80 1009.6
20260507003044 19 0.0 0.0 0.00 0.33 0.33 79 1009.4
20260507002600 20 225 0.0 1.6 0.00 0.33 0.33 79 1009.2
20260507002044 20 221 1.6 1.6 0.00 0.33 0.33 79 1009.4
20260507001541 20 253 1.6 4.8 0.00 0.33 0.33 78 1009.2
20260507001044 20 230 1.6 3.2 0.00 0.33 0.33 78 1009.4
20260507000540 20 220 1.6 3.2 0.00 0.33 0.33 78 1009.4
20260507000044 20 219 0.0 1.6 0.00 0.33 0.33 77 1009.4
20260506235541 20 215 0.0 1.6 0.00 0.33 0.33 77 1009.3
20260506235044 20 242 1.6 3.2 0.00 0.33 0.33 76 1009.2
20260506234540 20 238 0.0 3.2 0.00 0.33 0.33 76 1009.2
20260506234043 21 237 0.0 3.2 0.00 0.33 0.33 76 1009.0
20260506233541 21 220 1.6 3.2 0.00 0.33 0.33 75 1008.9
20260506233044 21 250 1.6 3.2 0.00 0.33 0.33 75 1008.9
20260506232540 21 223 1.6 4.8 0.00 0.33 0.33 75 1008.9
20260506232044 21 234 1.6 3.2 0.00 0.33 0.33 75 1008.8
20260506231602 21 234 1.6 9.7 0.00 0.33 0.33 74 1008.9
20260506231042 21 237 1.6 3.2 0.00 0.33 0.33 74 1009.0
20260506230540 21 228 1.6 1.6 0.00 0.33 0.33 74 1009.0
20260506230044 21 244 3.2 8.0 0.00 0.33 0.33 74 1008.9
20260506225541 21 246 1.6 8.0 0.00 0.33 0.33 74 1008.9
20260506225041 21 234 1.6 4.8 0.00 0.33 0.33 74 1008.8
20260506224540 21 244 3.2 8.0 0.00 0.33 0.33 73 1009.0
20260506224044 21 249 3.2 9.7 0.00 0.33 0.33 73 1008.8
20260506223541 21 244 3.2 4.8 0.00 0.33 0.33 73 1009.0
20260506223041 21 264 3.2 9.7 0.00 0.33 0.33 73 1008.8
20260506222540 21 246 3.2 11.3 0.00 0.33 0.33 72 1008.9
20260506222044 21 242 3.2 8.0 0.00 0.33 0.33 72 1009.0
20260506221542 21 244 1.6 4.8 0.00 0.33 0.33 72 1008.8
20260506221041 21 246 3.2 9.7 0.00 0.33 0.33 72 1008.7
20260506220600 22 206 3.2 8.0 0.00 0.33 0.33 72 1008.6
20260506220044 21 237 1.6 3.2 0.00 0.33 0.33 72 1008.7
20260506215541 21 225 1.6 4.8 0.00 0.33 0.33 72 1008.8
20260506215041 21 228 1.6 4.8 0.00 0.33 0.33 73 1008.8
20260506214540 21 248 3.2 9.7 0.00 0.33 0.33 73 1009.0
20260506214104 21 233 1.6 4.8 0.00 0.33 0.33 73 1008.8
20260506213541 21 228 1.6 4.8 0.00 0.33 0.33 73 1008.8
20260506213041 21 232 1.6 4.8 0.00 0.33 0.33 73 1009.0
20260506212541 21 234 0.0 1.6 0.00 0.33 0.33 73 1009.1
20260506212044 21 207 1.6 4.8 0.00 0.33 0.33 73 1008.8
20260506211541 21 213 3.2 11.3 0.00 0.33 0.33 73 1008.7
20260506211102 21 240 3.2 9.7 0.00 0.33 0.33 73 1008.7
20260506210601 21 237 1.6 3.2 0.00 0.33 0.33 74 1008.7
20260506210104 21 233 3.2 4.8 0.00 0.33 0.33 74 1008.4
20260506205601 21 250 1.6 4.8 0.00 0.33 0.33 74 1008.7
20260506205041 21 259 3.2 11.3 0.00 0.33 0.33 74 1008.6
20260506204540 21 250 4.8 11.3 0.00 0.33 0.33 74 1008.6
20260506204044 21 238 3.2 8.0 0.00 0.33 0.33 74 1008.6
20260506203541 20 236 3.2 4.8 0.00 0.33 0.33 75 1008.8
20260506203041 20 247 4.8 11.3 0.00 0.33 0.33 75 1008.6
20260506202540 20 262 4.8 14.5 0.00 0.33 0.33 75 1008.5
20260506202044 20 250 3.2 9.7 0.00 0.33 0.33 75 1008.6
20260506201541 20 237 3.2 4.8 0.00 0.33 0.33 76 1008.7
20260506201042 20 239 4.8 12.9 0.00 0.33 0.33 76 1008.8
20260506200540 20 237 3.2 9.7 0.00 0.33 0.33 76 1008.8
20260506200045 20 264 3.2 9.7 0.00 0.33 0.33 76 1008.6
20260506195541 20 256 3.2 9.7 0.00 0.33 0.33 76 1008.7
20260506195041 20 243 3.2 11.3 0.00 0.33 0.33 77 1008.8
20260506194540 19 250 3.2 8.0 0.00 0.33 0.33 78 1008.8
20260506194044 19 250 3.2 9.7 0.00 0.33 0.33 78 1008.9
20260506193601 19 225 3.2 8.0 0.00 0.33 0.33 78 1009.1
20260506193041 19 240 3.2 11.3 0.00 0.33 0.33 78 1009.0
20260506192601 19 249 3.2 4.8 0.00 0.33 0.33 79 1009.2
20260506192044 19 239 1.6 4.8 0.00 0.33 0.33 79 1009.2
20260506191541 19 232 1.6 4.8 0.00 0.33 0.33 78 1009.2
20260506191041 19 233 3.2 4.8 0.00 0.33 0.33 78 1009.2
20260506190541 19 257 3.2 8.0 0.00 0.33 0.33 78 1009.4
20260506190044 19 249 3.2 9.7 0.00 0.33 0.33 78 1009.4
20260506185541 19 228 3.2 9.7 0.00 0.33 0.33 78 1009.6
20260506185042 19 257 3.2 11.3 0.00 0.33 0.33 78 1009.6
20260506184541 19 250 4.8 9.7 0.00 0.33 0.33 79 1009.9
20260506184049 19 241 3.2 8.0 0.00 0.33 0.33 79 1010.1
20260506183542 18 239 1.6 3.2 0.00 0.33 0.33 79 1009.8
20260506183041 18 265 4.8 11.3 0.00 0.33 0.33 79 1009.6
20260506182541 18 257 4.8 11.3 0.00 0.33 0.33 79 1009.6
20260506182044 18 258 3.2 8.0 0.00 0.33 0.33 79 1009.8
20260506181541 18 227 4.8 11.3 0.00 0.33 0.33 79 1010.0
20260506181042 18 236 3.2 8.0 0.00 0.33 0.33 80 1009.8
20260506180541 18 258 3.2 8.0 0.00 0.33 0.33 80 1010.0
20260506180104 18 248 1.6 9.7 0.00 0.33 0.33 80 1009.7
20260506175602 18 234 3.2 9.7 0.00 0.33 0.33 80 1009.9
20260506175042 18 249 4.8 12.9 0.00 0.33 0.33 80 1010.1
20260506174540 18 255 6.4 11.3 0.00 0.33 0.33 80 1010.0
20260506174045 18 262 4.8 14.5 0.00 0.33 0.33 80 1010.0
20260506173542 18 248 3.2 4.8 0.00 0.33 0.33 80 1010.1
20260506173041 18 249 3.2 9.7 0.00 0.33 0.33 80 1010.1
20260506172540 18 247 4.8 9.7 0.00 0.33 0.33 81 1010.1
20260506172045 18 248 4.8 12.9 0.00 0.33 0.33 81 1010.1
20260506171622 18 255 3.2 11.3 0.00 0.33 0.33 81 1010.3
20260506171043 17 242 4.8 11.3 0.00 0.33 0.33 81 1010.3
20260506170540 17 269 4.8 11.3 0.00 0.33 0.33 81 1010.3
20260506170044 17 265 3.2 11.3 0.00 0.33 0.33 82 1010.2
20260506165541 17 248 4.8 9.7 0.00 0.33 0.33 82 1010.3
20260506165042 17 264 4.8 12.9 0.00 0.33 0.33 82 1010.3
20260506164540 17 276 4.8 12.9 0.00 0.33 0.33 83 1010.3
20260506164044 17 267 3.2 9.7 0.00 0.33 0.33 83 1010.5
20260506163601 17 227 4.8 14.5 0.00 0.33 0.33 84 1010.3
20260506163041 17 274 4.8 11.3 0.00 0.33 0.33 86 1010.5
20260506162541 17 251 4.8 11.3 0.00 0.33 0.33 87 1010.2
20260506162044 16 230 4.8 14.5 0.00 0.33 0.33 88 1010.7
20260506161541 16 259 3.2 4.8 0.00 0.33 0.33 88 1010.7
20260506161041 16 236 3.2 8.0 0.00 0.33 0.33 88 1010.7
20260506160540 16 263 4.8 16.1 0.00 0.33 0.33 88 1010.8
20260506160044 16 260 4.8 11.3 0.00 0.33 0.33 88 1010.7
20260506155541 16 258 3.2 8.0 0.00 0.33 0.33 88 1010.7